sat.trackr.live / text

‹ back to catalog

STARLINK-5842

NORAD 56491 · 2023-064AV

PAYLOAD ACTIVE UNKNOWN

§ Identity

Operator
Country
US
Launch date
2023-05-10
Launch site
AFWTR
Launch vehicle
Mass (kg)
RCS (m²)

Purposes: comms

External: N2YO · Heavens-Above · Gunter

§ Orbital elements

Epoch: 2026-09-20T21:40:45.516576Z

Period
96.11 min
Inclination
70.0008°
Eccentricity
0.0003354
Mean motion
14.98329020 rev/d
Perigee alt
569.7 km
Apogee alt
574.4 km
Semi-major
6,950.2 km
B*
6.6637e-6
RAAN
332.2533°
Arg perigee
269.6751°
Mean anomaly
90.4024°
Rev number
18,547

§ Raw data

STARLINK-58421 56491U 23064AV  26263.90330459 -.00000014  00000+0  66637-5 0  99902 56491  70.0008 332.2533 0003354 269.6751  90.4024 14.98329020185476

JSON: /api/v1/satellites/56491 · /tle

For live sub-satellite position, see the globe view (requires WebGL).

§ Visibility from observer

Set your observer location to see the next 7 days of passes ≥ 10°. The values pass through the URL so the page stays shareable.

No JS? Fill the form by hand. The geolocation button needs JavaScript.